Change the Weather History Date:

Wednesday, December 5, 2012

  Actual Average Record
Temperature  
Mean Temperature 67 °F 56 °F  
Max Temperature 75 °F 65 °F 79 °F (1958)
Min Temperature 59 °F 46 °F 26 °F (1893)
Degree Days  
Heating Degree Days 0 10  
Month to date heating degree days 1 48  
Since 1 July heating degree days 213 260  
Cooling Degree Days 2 1  
Month to date cooling degree days 7 5  
Year to date cooling degree days 3036 2601  
Growing Degree Days 16 (Base 50)    
Moisture  
Dew Point 60 °F    
Average Humidity 82    
Maximum Humidity 100    
Minimum Humidity 64    
Precipitation  
Precipitation 0.00 in 0.16 in 3.30 in (2004)
Month to date precipitation 0.00 0.79  
Year to date precipitation 64.54 61.51  
Snow  
Snow 0.00 in 0.00 in 0.00 in (2002)
Month to date snowfall 0.0 0.0  
Since 1 July snowfall 0.0 0.0  
Snow Depth 0.00 in    
Sea Level Pressure  
Sea Level Pressure 30.13 in    
Wind  
Wind Speed 4 mph (ENE)    
Max Wind Speed 10 mph    
Max Gust Speed 13 mph    
Visibility 8 miles    
Events Fog    
T = Trace of Precipitation, MM = Missing Value Source: NWS Daily Summary

Daily Weather History Graph

Daily Weather History Graph

Search for Another Location

Airport or City:

Trip Planner

Search our weather history database for the weather conditions in past years. The results will help you decide how hot, cold, wet, or windy it might be!

Date:

Astronomy

Dec. 05, 2012 Rise Set
Actual Time 6:31 AM CST 4:47 PM CST
Civil Twilight 6:05 AM CST 5:13 PM CST
Nautical Twilight 5:35 AM CST 5:43 PM CST
Astronomical Twilight 5:06 AM CST 6:12 PM CST
Moon 11:15 PM CST (12/5) 11:13 AM CST (12/5)
Length of Visible Light 11h 08m
Length of Day
10h 16m
Waning Gibbous, 59% of the Moon is Illuminated
Dec 5
Waning Gibbous
Dec 6
Last Quarter
Dec 13
New
Dec 19
First Quarter
Dec 28
Full

Hourly Weather History & Observations

Time (CST) Temp. Dew Point Humidity Pressure Visibility Wind Dir Wind Speed Gust Speed Precip Events Conditions
12:53 AM 61.0 °F 60.1 °F 97% 30.17 in 9.0 mi ENE 4.6 mph - N/A   Clear
1:53 AM 62.1 °F 60.1 °F 93% 30.17 in 10.0 mi ENE 3.5 mph - N/A   Clear
2:44 AM 60.8 °F 60.8 °F 100% 30.16 in 4.0 mi NE 3.5 mph - N/A   Scattered Clouds
2:50 AM 60.8 °F 59.0 °F 94% 30.16 in 2.5 mi Calm Calm - N/A   Mostly Cloudy
2:53 AM 61.0 °F 59.0 °F 93% 30.16 in 2.0 mi Calm Calm - N/A   Mostly Cloudy
3:00 AM 60.8 °F 59.0 °F 94% 30.15 in 0.8 mi Calm Calm - N/A   Mist
3:24 AM 60.8 °F 59.0 °F 94% 30.15 in 0.2 mi Calm Calm - N/A Fog Fog
3:34 AM 60.8 °F 57.2 °F 88% 30.15 in 0.5 mi Calm Calm - N/A Fog Fog
3:41 AM 60.8 °F 57.2 °F 88% 30.15 in 2.0 mi Calm Calm - N/A   Mostly Cloudy
3:49 AM 59.0 °F 57.2 °F 94% 30.15 in 4.0 mi Calm Calm - N/A   Scattered Clouds
3:50 AM 59.0 °F 57.9 °F 96% 30.16 in 4.0 mi Calm Calm - N/A   Scattered Clouds
4:53 AM 61.0 °F 59.0 °F 93% 30.16 in 10.0 mi NE 3.5 mph - N/A   Clear
5:53 AM 60.1 °F 57.9 °F 93% 30.16 in 10.0 mi ENE 3.5 mph - N/A   Clear
6:53 AM 60.1 °F 57.9 °F 93% 30.18 in 10.0 mi East 4.6 mph - N/A   Clear
8:53 AM 64.9 °F 60.1 °F 84% 30.19 in 10.0 mi East 6.9 mph - N/A   Clear
9:53 AM 66.0 °F 60.1 °F 81% 30.19 in 10.0 mi East 6.9 mph - N/A   Clear
10:53 AM 71.1 °F 62.1 °F 73% 30.16 in 10.0 mi East 6.9 mph - N/A   Clear
11:53 AM 73.0 °F 63.0 °F 71% 30.13 in - Variable 5.8 mph - N/A   Unknown
12:53 PM 73.9 °F 60.1 °F 62% 30.10 in 10.0 mi East 6.9 mph - N/A   Scattered Clouds
1:53 PM 73.9 °F 61.0 °F 64% 30.08 in 10.0 mi ESE 6.9 mph - N/A   Scattered Clouds
2:53 PM 71.1 °F 62.1 °F 73% 30.07 in 10.0 mi SE 9.2 mph - N/A   Clear
3:53 PM 70.0 °F 63.0 °F 78% 30.07 in 10.0 mi ESE 5.8 mph - N/A   Clear
4:53 PM 68.0 °F 64.0 °F 87% 30.07 in 10.0 mi East 3.5 mph - N/A   Clear
5:53 PM 66.9 °F 63.0 °F 87% 30.08 in 10.0 mi Calm Calm - N/A   Clear
6:53 PM 66.0 °F 61.0 °F 84% 30.08 in 10.0 mi ENE 3.5 mph - N/A   Clear
7:53 PM 66.0 °F 61.0 °F 84% 30.09 in 10.0 mi NE 3.5 mph - N/A   Clear
8:53 PM 64.0 °F 61.0 °F 90% 30.08 in 10.0 mi NE 4.6 mph - N/A   Clear
9:53 PM 61.0 °F 59.0 °F 93% 30.08 in 10.0 mi Calm Calm - N/A   Clear
10:53 PM 62.1 °F 59.0 °F 90% 30.08 in 10.0 mi NE 4.6 mph - N/A   Clear
11:53 PM 61.0 °F 59.0 °F 93% 30.07 in 10.0 mi NE 5.8 mph - N/A   Clear